Weather History for Texarkana, AR

Change the Weather History Date:

Wednesday, February 27, 2013

  Actual Average Record
Temperature  
Mean Temperature 43 °F 51 °F  
Max Temperature 56 °F 62 °F 85 °F (1918)
Min Temperature 30 °F 41 °F 15 °F (1935)
Degree Days  
Heating Degree Days 22 14  
Month to date heating degree days 458 459  
Since 1 July heating degree days 1926 2181  
Cooling Degree Days 0 0  
Month to date cooling degree days 0 0  
Year to date cooling degree days 4 1  
Moisture  
Dew Point 31 °F    
Average Humidity 68    
Maximum Humidity 100    
Minimum Humidity 35    
Precipitation  
Precipitation 0.00 in 0.15 in 4.29 in (2001)
Month to date precipitation 1.78 3.84  
Year to date precipitation 5.45 7.24  
Snow  
Snow 0.00 in - - ()
Month to date snowfall 0.0  
Since 1 July snowfall 2.1  
Snow Depth 0.00 in    
Sea Level Pressure  
Sea Level Pressure 30.02 in    
Wind  
Wind Speed 8 mph (NW)    
Max Wind Speed 23 mph    
Max Gust Speed 30 mph    
Visibility 9 miles    
Events      
T = Trace of Precipitation, MM = Missing Value Source: NWS Daily Summary

Daily Weather History Graph

Daily Weather History Graph

Search for Another Location

Airport:

Trip Planner

Search our weather history database for the weather conditions in past years. The results will help you decide how hot, cold, wet, or windy it might be!

Date:

Astronomy

Feb. 27, 2013 Rise Set
Actual Time 6:46 AM CST 6:11 PM CST
Civil Twilight 6:21 AM CST 6:36 PM CST
Nautical Twilight 5:52 AM CST 7:05 PM CST
Astronomical Twilight 5:23 AM CST 7:33 PM CST
Moon 8:23 PM CST (2/27) 7:30 AM CST (2/27)
Length of Visible Light 12h 14m
Length of Day
11h 25m
Waning Gibbous, 96% of the Moon is Illuminated
Feb 27
Waning Gibbous
Mar 4
Last Quarter
Mar 11
New
Mar 19
First Quarter
Mar 27
Full

Hourly Weather History & Observations

Time (CST) Temp. Windchill Dew Point Humidity Pressure Visibility Wind Dir Wind Speed Gust Speed Precip Events Conditions
12:53 AM 34.0 °F - 33.1 °F 96% 29.92 in 10.0 mi Calm Calm - N/A   Clear
1:53 AM 34.0 °F - 33.1 °F 96% 29.93 in 9.0 mi Calm Calm - N/A   Clear
2:53 AM 35.1 °F - 34.0 °F 96% 29.92 in 9.0 mi Calm Calm - N/A   Clear
3:53 AM 35.1 °F - 33.1 °F 92% 29.91 in 8.0 mi Calm Calm - N/A   Clear
4:53 AM 30.9 °F - 30.0 °F 96% 29.94 in 8.0 mi Calm Calm - N/A   Clear
5:53 AM 34.0 °F 29.8 °F 32.0 °F 92% 29.95 in 9.0 mi NNW 4.6 mph - N/A   Clear
6:53 AM 32.0 °F - 30.9 °F 96% 29.97 in 4.0 mi Calm Calm - N/A   Clear
7:53 AM 37.0 °F 32.4 °F 34.0 °F 89% 30.03 in 8.0 mi WNW 5.8 mph - N/A   Mostly Cloudy
9:53 AM 44.1 °F 38.1 °F 33.1 °F 65% 30.05 in 9.0 mi NNW 11.5 mph - N/A   Clear
10:53 AM 48.0 °F - 34.0 °F 58% 30.06 in 10.0 mi WNW 6.9 mph - N/A   Clear
11:53 AM 50.0 °F - 35.1 °F 57% 30.05 in 10.0 mi NNW 11.5 mph - N/A   Clear
12:53 PM 52.0 °F - 32.0 °F 47% 30.04 in 10.0 mi NW 11.5 mph 19.6 mph N/A   Clear
1:53 PM 54.0 °F - 28.9 °F 38% 30.03 in 10.0 mi WNW 17.3 mph 27.6 mph N/A   Clear
2:53 PM 55.0 °F - 28.0 °F 35% 30.02 in 10.0 mi WNW 18.4 mph 29.9 mph N/A   Clear
3:53 PM 55.0 °F - 30.9 °F 40% 30.04 in 10.0 mi WNW 16.1 mph 23.0 mph N/A   Clear
4:53 PM 54.0 °F - 30.0 °F 40% 30.04 in 10.0 mi WNW 12.7 mph 23.0 mph N/A   Clear
5:53 PM 52.0 °F - 30.0 °F 43% 30.05 in 10.0 mi WNW 11.5 mph - N/A   Clear
6:53 PM 48.9 °F - 30.9 °F 50% 30.06 in 10.0 mi WNW 5.8 mph - N/A   Clear
8:53 PM 46.0 °F 42.5 °F 30.0 °F 54% 30.08 in 10.0 mi West 6.9 mph - N/A   Clear
9:53 PM 44.1 °F 38.6 °F 28.9 °F 55% 30.10 in 10.0 mi NW 10.4 mph - N/A   Clear
10:53 PM 42.1 °F 35.2 °F 27.0 °F 55% 30.12 in 10.0 mi NW 12.7 mph - N/A   Clear
11:53 PM 39.9 °F 32.9 °F 27.0 °F 60% 30.13 in 10.0 mi NW 11.5 mph - N/A   Clear